| time (UTC) | temp C | wind direction | speed KPH | gust KPH | rain 1hr cm | rain 24hr cm | rain mn cm | humidity % | barometer mb |
| 20260506232828 | 18 | 360 | 1.6 | 0.0 | 0.00 | 0.00 | 0.00 | 62 | 1015.9 |
| 20260506231828 | 18 | 360 | 1.6 | 0.0 | 0.00 | 0.00 | 0.00 | 62 | 1016.0 |
| 20260506230836 | 18 | 315 | 1.6 | 0.0 | 0.00 | 0.00 | 0.00 | 64 | 1016.0 |
| 20260506225829 | 18 | 294 | 1.6 | 0.0 | 0.00 | 0.00 | 0.00 | 63 | 1016.1 |
| 20260506224830 | 18 | 177 | 0.0 | 0.0 | 0.00 | 0.00 | 0.00 | 63 | 1016.0 |
| 20260506223849 | 18 | 177 | 0.0 | 0.0 | 0.00 | 0.00 | 0.00 | 63 | 1016.1 |
| 20260506222833 | 18 | 177 | 0.0 | 0.0 | 0.00 | 0.00 | 0.00 | 62 | 1016.1 |
| 20260506221832 | 18 | 177 | 0.0 | 0.0 | 0.00 | 0.00 | 0.00 | 61 | 1016.3 |
| 20260506220852 | 18 | 177 | 0.0 | 0.0 | 0.00 | 0.00 | 0.00 | 59 | 1016.2 |
| 20260506215845 | 19 | 177 | 0.0 | 0.0 | 0.00 | 0.00 | 0.00 | 61 | 1016.2 |
| 20260506214835 | 19 | 177 | 0.0 | 0.0 | 0.00 | 0.00 | 0.00 | 61 | 1016.3 |
| 20260506213836 | 19 | 177 | 0.0 | 0.0 | 0.00 | 0.00 | 0.00 | 61 | 1016.2 |
| 20260506212830 | 19 | 239 | 0.0 | 0.0 | 0.00 | 0.00 | 0.00 | 60 | 1016.5 |
| 20260506211831 | 19 | 241 | 0.0 | 0.0 | 0.00 | 0.00 | 0.00 | 60 | 1016.5 |
| 20260506210853 | 19 | 242 | 0.0 | 0.0 | 0.00 | 0.00 | 0.00 | 60 | 1016.6 |
| 20260506205853 | 19 | 242 | 0.0 | 0.0 | 0.00 | 0.00 | 0.00 | 59 | 1016.7 |
| 20260506204842 | 19 | 242 | 0.0 | 0.0 | 0.00 | 0.00 | 0.00 | 59 | 1016.7 |
| 20260506203843 | 19 | 244 | 3.2 | 0.0 | 0.00 | 0.00 | 0.00 | 58 | 1016.8 |
| 20260506202831 | 20 | 243 | 1.6 | 0.0 | 0.00 | 0.00 | 0.00 | 58 | 1016.7 |
| 20260506201833 | 20 | 241 | 1.6 | 0.0 | 0.00 | 0.00 | 0.00 | 56 | 1016.7 |
| 20260506200850 | 20 | 253 | 1.6 | 0.0 | 0.00 | 0.00 | 0.00 | 54 | 1016.6 |
| 20260506195846 | 20 | 245 | 1.6 | 0.0 | 0.00 | 0.00 | 0.00 | 52 | 1016.5 |
| 20260506194834 | 20 | 249 | 1.6 | 0.0 | 0.00 | 0.00 | 0.00 | 49 | 1016.5 |
| 20260506193834 | 21 | 244 | 1.6 | 0.0 | 0.00 | 0.00 | 0.00 | 46 | 1016.3 |
| 20260506192848 | 21 | 198 | 1.6 | 0.0 | 0.00 | 0.00 | 0.00 | 45 | 1016.2 |
| 20260506191845 | 21 | 198 | 0.0 | 0.0 | 0.00 | 0.00 | 0.00 | 44 | 1015.9 |
| 20260506190832 | 21 | 198 | 0.0 | 0.0 | 0.00 | 0.00 | 0.00 | 43 | 1015.9 |
| 20260506185844 | 21 | 198 | 0.0 | 0.0 | 0.00 | 0.00 | 0.00 | 43 | 1015.8 |
| 20260506184843 | 21 | 198 | 1.6 | 0.0 | 0.00 | 0.00 | 0.00 | 43 | 1015.8 |
| 20260506183832 | 21 | 190 | 1.6 | 0.0 | 0.00 | 0.00 | 0.00 | 42 | 1015.6 |
| 20260506182835 | 21 | 180 | 1.6 | 0.0 | 0.00 | 0.00 | 0.00 | 42 | 1015.6 |
| 20260506181835 | 21 | 184 | 1.6 | 0.0 | 0.00 | 0.00 | 0.00 | 42 | 1015.3 |
| 20260506180856 | 21 | 187 | 1.6 | 0.0 | 0.00 | 0.00 | 0.00 | 42 | 1015.3 |
| 20260506175847 | 21 | 150 | 0.0 | 0.0 | 0.00 | 0.00 | 0.00 | 42 | 1015.2 |
| 20260506174831 | 22 | 163 | 1.6 | 0.0 | 0.00 | 0.00 | 0.00 | 42 | 1015.2 |
| 20260506173829 | 22 | 204 | 3.2 | 0.0 | 0.00 | 0.00 | 0.00 | 43 | 1015.1 |
| 20260506172848 | 22 | 147 | 3.2 | 0.0 | 0.00 | 0.00 | 0.00 | 43 | 1015.1 |
| 20260506171840 | 22 | 198 | 4.8 | 0.0 | 0.00 | 0.00 | 0.00 | 43 | 1015.1 |
| 20260506170843 | 22 | 174 | 3.2 | 0.0 | 0.00 | 0.00 | 0.00 | 43 | 1015.0 |
| 20260506165837 | 22 | 202 | 4.8 | 0.0 | 0.00 | 0.00 | 0.00 | 43 | 1014.8 |
| 20260506164825 | 22 | 162 | 4.8 | 0.0 | 0.00 | 0.00 | 0.00 | 43 | 1014.9 |
| 20260506163844 | 22 | 167 | 6.4 | 0.0 | 0.00 | 0.00 | 0.00 | 43 | 1014.9 |
| 20260506162842 | 22 | 147 | 4.8 | 0.0 | 0.00 | 0.00 | 0.00 | 43 | 1014.8 |
| 20260506161836 | 23 | 197 | 4.8 | 0.0 | 0.00 | 0.00 | 0.00 | 42 | 1014.9 |
| 20260506160836 | 23 | 202 | 4.8 | 0.0 | 0.00 | 0.00 | 0.00 | 41 | 1014.9 |
| 20260506155833 | 23 | 231 | 4.8 | 0.0 | 0.00 | 0.00 | 0.00 | 41 | 1014.9 |
| 20260506154847 | 23 | 163 | 6.4 | 0.0 | 0.00 | 0.00 | 0.00 | 41 | 1014.9 |
| 20260506153835 | 23 | 139 | 4.8 | 0.0 | 0.00 | 0.00 | 0.00 | 42 | 1014.9 |
| 20260506152835 | 23 | 244 | 4.8 | 0.0 | 0.00 | 0.00 | 0.00 | 43 | 1015.0 |
| 20260506151856 | 23 | 167 | 6.4 | 0.0 | 0.00 | 0.00 | 0.00 | 43 | 1015.2 |
| 20260506150829 | 23 | 202 | 6.4 | 0.0 | 0.00 | 0.00 | 0.00 | 43 | 1015.1 |
| 20260506145842 | 23 | 196 | 6.4 | 0.0 | 0.00 | 0.00 | 0.00 | 42 | 1015.1 |
| 20260506144842 | 23 | 204 | 8.0 | 0.0 | 0.00 | 0.00 | 0.00 | 42 | 1015.2 |
| 20260506143834 | 23 | 181 | 9.7 | 0.0 | 0.00 | 0.00 | 0.00 | 42 | 1015.1 |
| 20260506142838 | 23 | 166 | 8.0 | 0.0 | 0.00 | 0.00 | 0.00 | 42 | 1015.1 |
| 20260506141827 | 23 | 140 | 6.4 | 0.0 | 0.00 | 0.00 | 0.00 | 42 | 1015.2 |
| 20260506140829 | 23 | 160 | 8.0 | 0.0 | 0.00 | 0.00 | 0.00 | 43 | 1015.2 |
| 20260506135844 | 23 | 232 | 6.4 | 0.0 | 0.00 | 0.00 | 0.00 | 44 | 1015.2 |
| 20260506134844 | 23 | 150 | 8.0 | 0.0 | 0.00 | 0.00 | 0.00 | 44 | 1015.2 |
| 20260506133836 | 23 | 81 | 6.4 | 0.0 | 0.00 | 0.00 | 0.00 | 45 | 1015.3 |
| 20260506132836 | 23 | 55 | 8.0 | 0.0 | 0.00 | 0.00 | 0.00 | 45 | 1015.4 |
| 20260506131831 | 23 | 217 | 6.4 | 0.0 | 0.00 | 0.00 | 0.00 | 45 | 1015.4 |
| 20260506130830 | 23 | 161 | 6.4 | 0.0 | 0.00 | 0.00 | 0.00 | 45 | 1015.4 |
| 20260506125845 | 23 | 194 | 8.0 | 0.0 | 0.00 | 0.00 | 0.00 | 46 | 1015.4 |
| 20260506124842 | 24 | 205 | 6.4 | 0.0 | 0.00 | 0.00 | 0.00 | 44 | 1015.5 |
| 20260506123834 | 23 | 190 | 8.0 | 0.0 | 0.00 | 0.00 | 0.00 | 43 | 1015.4 |
| 20260506122839 | 23 | 138 | 8.0 | 0.0 | 0.00 | 0.00 | 0.00 | 43 | 1015.5 |
| 20260506121830 | 24 | 179 | 6.4 | 0.0 | 0.00 | 0.00 | 0.00 | 45 | 1015.7 |
| 20260506120829 | 24 | 159 | 6.4 | 0.0 | 0.00 | 0.00 | 0.00 | 47 | 1015.7 |
| 20260506115843 | 23 | 190 | 6.4 | 0.0 | 0.00 | 0.00 | 0.00 | 48 | 1015.9 |
| 20260506114845 | 23 | 225 | 6.4 | 0.0 | 0.00 | 0.00 | 0.00 | 48 | 1016.0 |
| 20260506113833 | 23 | 208 | 6.4 | 0.0 | 0.00 | 0.00 | 0.00 | 47 | 1016.0 |
| 20260506112835 | 23 | 215 | 6.4 | 0.0 | 0.00 | 0.00 | 0.00 | 47 | 1016.1 |
| 20260506111827 | 24 | 186 | 4.8 | 0.0 | 0.00 | 0.00 | 0.00 | 46 | 1016.0 |
| 20260506110829 | 24 | 193 | 4.8 | 0.0 | 0.00 | 0.00 | 0.00 | 46 | 1016.0 |
| 20260506105827 | 23 | 257 | 6.4 | 0.0 | 0.00 | 0.00 | 0.00 | 46 | 1016.0 |
| 20260506104845 | 24 | 143 | 4.8 | 0.0 | 0.00 | 0.00 | 0.00 | 46 | 1016.1 |
| 20260506103833 | 23 | 154 | 6.4 | 0.0 | 0.00 | 0.00 | 0.00 | 43 | 1016.1 |
| 20260506102836 | 24 | 185 | 4.8 | 0.0 | 0.00 | 0.00 | 0.00 | 45 | 1016.1 |
| 20260506101856 | 24 | 238 | 4.8 | 0.0 | 0.00 | 0.00 | 0.00 | 44 | 1016.1 |
| 20260506100827 | 24 | 69 | 4.8 | 0.0 | 0.00 | 0.00 | 0.00 | 44 | 1016.0 |
| 20260506095842 | 23 | 285 | 4.8 | 0.0 | 0.00 | 0.00 | 0.00 | 46 | 1016.0 |
| 20260506094842 | 24 | 317 | 3.2 | 0.0 | 0.00 | 0.00 | 0.00 | 47 | 1016.1 |
| 20260506093832 | 24 | 310 | 3.2 | 0.0 | 0.00 | 0.00 | 0.00 | 48 | 1016.2 |
| 20260506092840 | 23 | 203 | 4.8 | 0.0 | 0.00 | 0.00 | 0.00 | 49 | 1016.2 |
| 20260506091831 | 23 | 224 | 4.8 | 0.0 | 0.00 | 0.00 | 0.00 | 47 | 1016.3 |
| 20260506090830 | 23 | 197 | 4.8 | 0.0 | 0.00 | 0.00 | 0.00 | 49 | 1016.4 |
| 20260506085844 | 23 | 217 | 3.2 | 0.0 | 0.00 | 0.00 | 0.00 | 48 | 1016.3 |
| 20260506084839 | 23 | 180 | 3.2 | 0.0 | 0.00 | 0.00 | 0.00 | 48 | 1016.1 |
| 20260506083830 | 23 | 245 | 4.8 | 0.0 | 0.00 | 0.00 | 0.00 | 52 | 1016.1 |
| 20260506082831 | 23 | 171 | 3.2 | 0.0 | 0.00 | 0.00 | 0.00 | 50 | 1016.1 |
| 20260506081852 | 22 | 213 | 3.2 | 0.0 | 0.00 | 0.00 | 0.00 | 51 | 1016.2 |
| 20260506080844 | 22 | 198 | 3.2 | 0.0 | 0.00 | 0.00 | 0.00 | 49 | 1016.2 |
| 20260506072827 | 22 | 196 | 3.2 | 0.0 | 0.00 | 0.00 | 0.00 | 50 | 1015.9 |
| 20260506071849 | 22 | 197 | 1.6 | 0.0 | 0.00 | 0.00 | 0.00 | 50 | 1015.7 |
| 20260506070837 | 22 | 184 | 1.6 | 0.0 | 0.00 | 0.00 | 0.00 | 50 | 1015.8 |
| 20260506061833 | 21 | 120 | 1.6 | 0.0 | 0.00 | 0.00 | 0.00 | 50 | 1015.8 |
| 20260506060854 | 20 | 45 | 1.6 | 0.0 | 0.00 | 0.00 | 0.00 | 52 | 1015.8 |
| 20260506050826 | 18 | 10 | 3.2 | 0.0 | 0.00 | 0.00 | 0.00 | 59 | 1015.6 |
| 20260506044845 | 18 | 350 | 1.6 | 0.0 | 0.00 | 0.00 | 0.00 | 60 | 1015.2 |
| 20260506043835 | 17 | 71 | 1.6 | 0.0 | 0.00 | 0.00 | 0.00 | 62 | 1015.3 |
| 20260506042839 | 16 | 146 | 0.0 | 0.0 | 0.00 | 0.00 | 0.00 | 65 | 1015.3 |
| 20260506041829 | 16 | 146 | 0.0 | 0.0 | 0.00 | 0.00 | 0.00 | 66 | 1015.3 |
| 20260506040831 | 16 | 146 | 1.6 | 0.0 | 0.00 | 0.00 | 0.00 | 66 | 1015.1 |
| 20260506035843 | 16 | 146 | 0.0 | 0.0 | 0.00 | 0.00 | 0.00 | 67 | 1015.0 |
| 20260506034845 | 16 | 146 | 0.0 | 0.0 | 0.00 | 0.00 | 0.00 | 67 | 1015.0 |
| 20260506033836 | 16 | 146 | 1.6 | 0.0 | 0.00 | 0.00 | 0.00 | 67 | 1014.7 |
| 20260506032835 | 16 | 146 | 1.6 | 0.0 | 0.00 | 0.00 | 0.00 | 68 | 1014.7 |
| 20260506031828 | 16 | 146 | 1.6 | 0.0 | 0.00 | 0.00 | 0.00 | 68 | 1014.6 |
| 20260506030831 | 16 | 146 | 1.6 | 0.0 | 0.00 | 0.00 | 0.00 | 69 | 1014.6 |
| 20260506025840 | 16 | 146 | 0.0 | 0.0 | 0.00 | 0.00 | 0.00 | 70 | 1014.6 |
| 20260506024842 | 16 | 146 | 0.0 | 0.0 | 0.00 | 0.00 | 0.00 | 69 | 1014.5 |
| 20260506023835 | 16 | 146 | 0.0 | 0.0 | 0.00 | 0.00 | 0.00 | 69 | 1014.5 |
| 20260506022839 | 16 | 146 | 0.0 | 0.0 | 0.00 | 0.00 | 0.00 | 69 | 1014.6 |
| 20260506021829 | 17 | 146 | 0.0 | 0.0 | 0.00 | 0.00 | 0.00 | 68 | 1014.7 |
| 20260506020831 | 17 | 146 | 0.0 | 0.0 | 0.00 | 0.00 | 0.00 | 67 | 1014.7 |
| 20260506015846 | 17 | 146 | 0.0 | 0.0 | 0.00 | 0.00 | 0.00 | 67 | 1014.7 |
| 20260506014845 | 17 | 146 | 1.6 | 0.0 | 0.00 | 0.00 | 0.00 | 67 | 1014.8 |
| 20260506013834 | 17 | 146 | 0.0 | 0.0 | 0.00 | 0.00 | 0.00 | 67 | 1015.0 |
| 20260506012836 | 17 | 146 | 0.0 | 0.0 | 0.00 | 0.00 | 0.00 | 67 | 1014.9 |
| 20260506011855 | 17 | 146 | 0.0 | 0.0 | 0.00 | 0.00 | 0.00 | 67 | 1014.8 |
| 20260506010839 | 17 | 146 | 0.0 | 0.0 | 0.00 | 0.00 | 0.00 | 67 | 1014.9 |
| 20260506005839 | 17 | 146 | 0.0 | 0.0 | 0.00 | 0.00 | 0.00 | 66 | 1014.9 |
| 20260506004842 | 17 | 146 | 0.0 | 0.0 | 0.00 | 0.00 | 0.00 | 66 | 1015.0 |
| 20260506003857 | 17 | 146 | 0.0 | 0.0 | 0.00 | 0.00 | 0.00 | 66 | 1015.0 |
| 20260506002841 | 17 | 170 | 0.0 | 0.0 | 0.00 | 0.00 | 0.00 | 66 | 1015.0 |
| 20260506001840 | 17 | 170 | 1.6 | 0.0 | 0.00 | 0.00 | 0.00 | 66 | 1015.0 |
| 20260506000856 | 17 | 180 | 1.6 | 0.0 | 0.00 | 0.00 | 0.00 | 66 | 1015.0 |
| 20260505235836 | 17 | 161 | 0.0 | 0.0 | 0.00 | 0.00 | 0.00 | 65 | 1015.0 |
| 20260505234832 | 17 | 134 | 0.0 | 0.0 | 0.00 | 0.00 | 0.00 | 65 | 1015.2 |
| 20260505233839 | 17 | 134 | 0.0 | 0.0 | 0.00 | 0.00 | 0.00 | 64 | 1015.2 |